| time (UTC) | temp F | wind direction | speed MPH | gust MPH | rain 1hr in | rain 24hr in | rain mn in | humidity % | barometer mb |
| 20260902180530 | 64 | 305 | 4.0 | 14.0 | 0.00 | 0.00 | 0.00 | 77 | 1018.4 |
| 20260902174532 | 65 | 298 | 5.0 | 13.0 | 0.00 | 0.00 | 0.00 | 75 | 1018.4 |
| 20260902173529 | 65 | 298 | 5.0 | 12.0 | 0.00 | 0.00 | 0.00 | 75 | 1018.4 |
| 20260902172529 | 66 | 307 | 5.0 | 14.0 | 0.00 | 0.00 | 0.00 | 74 | 1018.4 |
| 20260902171531 | 66 | 254 | 10.0 | 13.0 | 0.00 | 0.00 | 0.00 | 73 | 1018.4 |
| 20260902170529 | 66 | 251 | 10.0 | 16.0 | 0.00 | 0.00 | 0.00 | 72 | 1018.4 |
| 20260902164532 | 67 | 256 | 8.0 | 16.0 | 0.00 | 0.00 | 0.00 | 70 | 1018.4 |
| 20260902163530 | 68 | 253 | 8.0 | 14.0 | 0.00 | 0.00 | 0.00 | 66 | 1018.4 |
| 20260902155529 | 71 | 239 | 8.0 | 14.0 | 0.00 | 0.00 | 0.00 | 57 | 1018.8 |
| 20260902154532 | 71 | 248 | 6.0 | 14.0 | 0.00 | 0.00 | 0.00 | 57 | 1018.8 |
| 20260902153530 | 71 | 246 | 6.0 | 15.0 | 0.00 | 0.00 | 0.00 | 56 | 1018.8 |
| 20260902152529 | 71 | 240 | 8.0 | 15.0 | 0.00 | 0.00 | 0.00 | 56 | 1018.8 |
| 20260902151532 | 71 | 298 | 4.0 | 14.0 | 0.00 | 0.00 | 0.00 | 56 | 1018.8 |
| 20260902145529 | 71 | 255 | 4.0 | 12.0 | 0.00 | 0.00 | 0.00 | 56 | 1019.2 |
| 20260902144532 | 71 | 264 | 5.0 | 11.0 | 0.00 | 0.00 | 0.00 | 57 | 1019.2 |
| 20260902143528 | 71 | 256 | 6.0 | 11.0 | 0.00 | 0.00 | 0.00 | 57 | 1019.2 |
| 20260902140530 | 71 | 244 | 6.0 | 16.0 | 0.00 | 0.00 | 0.00 | 57 | 1019.4 |
| 20260902135529 | 71 | 244 | 6.0 | 14.0 | 0.00 | 0.00 | 0.00 | 57 | 1019.4 |
| 20260902134532 | 72 | 256 | 8.0 | 14.0 | 0.00 | 0.00 | 0.00 | 56 | 1019.4 |
| 20260902132529 | 73 | 246 | 8.0 | 15.0 | 0.00 | 0.00 | 0.00 | 55 | 1019.4 |
| 20260902131533 | 72 | 301 | 9.0 | 14.0 | 0.00 | 0.00 | 0.00 | 56 | 1019.4 |
| 20260902130530 | 72 | 294 | 10.0 | 16.0 | 0.00 | 0.00 | 0.00 | 56 | 1019.7 |
| 20260902125529 | 72 | 304 | 9.0 | 18.0 | 0.00 | 0.00 | 0.00 | 56 | 1019.7 |
| 20260902123529 | 71 | 268 | 6.0 | 16.0 | 0.00 | 0.00 | 0.00 | 56 | 1019.7 |
| 20260902122530 | 71 | 262 | 8.0 | 16.0 | 0.00 | 0.00 | 0.00 | 55 | 1019.7 |
| 20260902121532 | 70 | 257 | 11.0 | 16.0 | 0.00 | 0.00 | 0.00 | 57 | 1019.7 |
| 20260902120530 | 70 | 250 | 12.0 | 18.0 | 0.00 | 0.00 | 0.00 | 58 | 1020.1 |
| 20260902114533 | 70 | 270 | 9.0 | 19.0 | 0.00 | 0.00 | 0.00 | 59 | 1020.1 |
| 20260902113530 | 70 | 262 | 7.0 | 17.0 | 0.00 | 0.00 | 0.00 | 61 | 1020.1 |
| 20260902112529 | 70 | 263 | 8.0 | 16.0 | 0.00 | 0.00 | 0.00 | 61 | 1020.1 |
| 20260902110529 | 69 | 280 | 10.0 | 15.0 | 0.00 | 0.00 | 0.00 | 63 | 1020.4 |
| 20260902105529 | 69 | 280 | 9.0 | 16.0 | 0.00 | 0.00 | 0.00 | 63 | 1020.4 |
| 20260902104532 | 69 | 249 | 10.0 | 17.0 | 0.00 | 0.00 | 0.00 | 63 | 1020.4 |
| 20260902103529 | 69 | 252 | 9.0 | 16.0 | 0.00 | 0.00 | 0.00 | 64 | 1020.4 |
| 20260902102528 | 69 | 255 | 12.0 | 16.0 | 0.00 | 0.00 | 0.00 | 65 | 1020.4 |
| 20260902101532 | 69 | 269 | 8.0 | 16.0 | 0.00 | 0.00 | 0.00 | 66 | 1020.4 |
| 20260902100531 | 68 | 266 | 9.0 | 13.0 | 0.00 | 0.00 | 0.00 | 66 | 1020.5 |
| 20260902095530 | 67 | 278 | 9.0 | 14.0 | 0.00 | 0.00 | 0.00 | 68 | 1020.5 |
| 20260902094532 | 67 | 275 | 9.0 | 14.0 | 0.00 | 0.00 | 0.00 | 67 | 1020.5 |
| 20260902093529 | 67 | 267 | 10.0 | 12.0 | 0.00 | 0.00 | 0.00 | 68 | 1020.5 |
| 20260902092528 | 66 | 260 | 11.0 | 14.0 | 0.00 | 0.00 | 0.00 | 70 | 1020.5 |
| 20260902091533 | 66 | 276 | 8.0 | 13.0 | 0.00 | 0.00 | 0.00 | 70 | 1020.5 |
| 20260902090529 | 66 | 265 | 8.0 | 12.0 | 0.00 | 0.00 | 0.00 | 71 | 1020.6 |
| 20260902083529 | 65 | 274 | 7.0 | 12.0 | 0.00 | 0.00 | 0.00 | 73 | 1020.6 |
| 20260902082531 | 65 | 268 | 9.0 | 12.0 | 0.00 | 0.00 | 0.00 | 74 | 1020.6 |
| 20260902081531 | 64 | 262 | 6.0 | 13.0 | 0.00 | 0.00 | 0.00 | 75 | 1020.6 |
| 20260902080530 | 64 | 266 | 5.0 | 8.0 | 0.00 | 0.00 | 0.00 | 76 | 1020.4 |
| 20260902075528 | 63 | 261 | 8.0 | 8.0 | 0.00 | 0.00 | 0.00 | 78 | 1020.4 |
| 20260902074533 | 63 | 235 | 4.0 | 7.0 | 0.00 | 0.00 | 0.00 | 79 | 1020.4 |
| 20260902073528 | 63 | 244 | 4.0 | 8.0 | 0.00 | 0.00 | 0.00 | 80 | 1020.4 |
| 20260902071531 | 61 | 251 | 5.0 | 7.0 | 0.00 | 0.00 | 0.00 | 82 | 1020.4 |
| 20260902070530 | 61 | 254 | 5.0 | 7.0 | 0.00 | 0.00 | 0.00 | 83 | 1020.6 |
| 20260902065529 | 61 | 246 | 4.0 | 7.0 | 0.00 | 0.00 | 0.00 | 83 | 1020.6 |
| 20260902063529 | 60 | 253 | 6.0 | 7.0 | 0.00 | 0.00 | 0.00 | 84 | 1020.6 |
| 20260902062529 | 60 | 261 | 7.0 | 8.0 | 0.00 | 0.00 | 0.00 | 84 | 1020.6 |
| 20260902060529 | 59 | 256 | 5.0 | 7.0 | 0.00 | 0.00 | 0.00 | 84 | 1020.6 |
| 20260902055528 | 59 | 257 | 4.0 | 6.0 | 0.00 | 0.00 | 0.00 | 84 | 1020.6 |
| 20260902054532 | 59 | 254 | 5.0 | 7.0 | 0.00 | 0.00 | 0.00 | 84 | 1020.6 |
| 20260902053529 | 59 | 258 | 7.0 | 9.0 | 0.00 | 0.00 | 0.00 | 84 | 1020.6 |
| 20260902051531 | 58 | 267 | 4.0 | 7.0 | 0.00 | 0.00 | 0.00 | 85 | 1020.6 |
| 20260902050529 | 58 | 270 | 7.0 | 8.0 | 0.00 | 0.00 | 0.00 | 85 | 1019.9 |
| 20260902045528 | 58 | 256 | 6.0 | 8.0 | 0.00 | 0.00 | 0.00 | 84 | 1019.9 |
| 20260902043530 | 58 | 265 | 6.0 | 6.0 | 0.00 | 0.00 | 0.00 | 84 | 1019.9 |
| 20260902042530 | 58 | 263 | 4.0 | 6.0 | 0.00 | 0.00 | 0.00 | 84 | 1019.9 |
| 20260902041531 | 58 | 246 | 7.0 | 9.0 | 0.00 | 0.00 | 0.00 | 84 | 1019.9 |
| 20260902040529 | 58 | 233 | 5.0 | 7.0 | 0.00 | 0.00 | 0.00 | 84 | 1019.8 |
| 20260902034532 | 58 | 247 | 2.0 | 8.0 | 0.00 | 0.01 | 0.00 | 84 | 1019.8 |
| 20260902033529 | 59 | 249 | 4.0 | 8.0 | 0.00 | 0.01 | 0.00 | 84 | 1019.8 |
| 20260902032528 | 59 | 247 | 3.0 | 8.0 | 0.00 | 0.02 | 0.00 | 83 | 1019.8 |
| 20260902031532 | 59 | 262 | 4.0 | 8.0 | 0.00 | 0.02 | 0.00 | 83 | 1019.8 |
| 20260902030530 | 59 | 265 | 2.0 | 8.0 | 0.00 | 0.03 | 0.00 | 83 | 1020.0 |
| 20260902025529 | 59 | 258 | 4.0 | 8.0 | 0.00 | 0.03 | 0.00 | 83 | 1020.0 |
| 20260902024532 | 60 | 264 | 4.0 | 8.0 | 0.00 | 0.03 | 0.00 | 83 | 1020.0 |
| 20260902023611 | 60 | 278 | 5.0 | 10.0 | 0.00 | 0.04 | 0.00 | 83 | 1020.0 |
| 20260902022529 | 60 | 275 | 7.0 | 9.0 | 0.00 | 0.04 | 0.00 | 83 | 1020.0 |
| 20260902015528 | 60 | 287 | 7.0 | 7.0 | 0.00 | 0.05 | 0.00 | 83 | 1019.8 |
| 20260902014532 | 60 | 278 | 8.0 | 9.0 | 0.00 | 0.05 | 0.00 | 83 | 1019.8 |
| 20260902012529 | 60 | 270 | 8.0 | 9.0 | 0.00 | 0.05 | 0.00 | 84 | 1019.8 |
| 20260902010530 | 61 | 261 | 8.0 | 9.0 | 0.00 | 0.05 | 0.00 | 84 | 1019.4 |
| 20260902005529 | 61 | 277 | 7.0 | 9.0 | 0.00 | 0.05 | 0.00 | 83 | 1019.4 |
| 20260902004530 | 61 | 264 | 4.0 | 7.0 | 0.00 | 0.05 | 0.00 | 83 | 1019.4 |
| 20260902003529 | 61 | 250 | 4.0 | 8.0 | 0.00 | 0.05 | 0.00 | 83 | 1019.4 |
| 20260902002528 | 61 | 266 | 4.0 | 7.0 | 0.00 | 0.05 | 0.00 | 82 | 1019.4 |
| 20260902001531 | 61 | 250 | 3.0 | 8.0 | 0.00 | 0.05 | 0.00 | 82 | 1019.4 |
| 20260902000530 | 62 | 251 | 4.0 | 8.0 | 0.00 | 0.05 | 0.00 | 82 | 1019.4 |
| 20260901235529 | 62 | 263 | 6.0 | 9.0 | 0.00 | 0.05 | 0.00 | 81 | 1019.4 |
| 20260901234532 | 62 | 250 | 7.0 | 9.0 | 0.00 | 0.05 | 0.00 | 81 | 1019.4 |
| 20260901233531 | 62 | 255 | 7.0 | 8.0 | 0.00 | 0.05 | 0.00 | 81 | 1019.4 |
| 20260901232529 | 62 | 259 | 6.0 | 8.0 | 0.00 | 0.05 | 0.00 | 80 | 1019.4 |
| 20260901231531 | 62 | 270 | 7.0 | 9.0 | 0.00 | 0.05 | 0.00 | 80 | 1019.4 |
| 20260901230529 | 63 | 266 | 6.0 | 9.0 | 0.00 | 0.05 | 0.00 | 80 | 1019.1 |
| 20260901225529 | 63 | 271 | 6.0 | 8.0 | 0.00 | 0.05 | 0.00 | 79 | 1019.1 |
| 20260901224531 | 63 | 268 | 6.0 | 9.0 | 0.00 | 0.05 | 0.00 | 78 | 1019.1 |
| 20260901223528 | 63 | 263 | 5.0 | 9.0 | 0.00 | 0.05 | 0.00 | 78 | 1019.1 |
| 20260901221532 | 64 | 262 | 6.0 | 9.0 | 0.00 | 0.05 | 0.00 | 78 | 1019.1 |
| 20260901215530 | 64 | 260 | 8.0 | 14.0 | 0.00 | 0.05 | 0.00 | 77 | 1019.0 |
| 20260901214531 | 64 | 251 | 6.0 | 14.0 | 0.00 | 0.05 | 0.00 | 76 | 1019.0 |
| 20260901213530 | 64 | 254 | 8.0 | 15.0 | 0.00 | 0.06 | 0.00 | 75 | 1019.0 |
| 20260901212529 | 64 | 258 | 8.0 | 16.0 | 0.00 | 0.06 | 0.00 | 75 | 1019.0 |
| 20260901210530 | 65 | 270 | 7.0 | 20.0 | 0.00 | 0.06 | 0.00 | 74 | 1018.6 |
| 20260901205529 | 65 | 265 | 8.0 | 22.0 | 0.00 | 0.07 | 0.00 | 72 | 1018.6 |
| 20260901202529 | 66 | 264 | 9.0 | 18.0 | 0.00 | 0.08 | 0.00 | 70 | 1018.6 |
| 20260901201532 | 66 | 269 | 12.0 | 19.0 | 0.00 | 0.09 | 0.00 | 70 | 1018.6 |
| 20260901200529 | 67 | 255 | 10.0 | 24.0 | 0.00 | 0.09 | 0.00 | 68 | 1018.3 |
| 20260901195529 | 67 | 265 | 12.0 | 22.0 | 0.00 | 0.09 | 0.00 | 68 | 1018.3 |
| 20260901194532 | 67 | 289 | 10.0 | 22.0 | 0.00 | 0.09 | 0.00 | 66 | 1018.3 |
| 20260901193530 | 67 | 281 | 11.0 | 24.0 | 0.00 | 0.09 | 0.00 | 66 | 1018.3 |
| 20260901192528 | 68 | 276 | 11.0 | 22.0 | 0.00 | 0.10 | 0.00 | 65 | 1018.3 |
| 20260901191532 | 68 | 276 | 13.0 | 24.0 | 0.00 | 0.10 | 0.00 | 64 | 1018.3 |
| 20260901185529 | 69 | 270 | 13.0 | 14.0 | 0.00 | 0.10 | 0.00 | 62 | 1017.6 |
| 20260901184534 | 69 | 279 | 11.0 | 13.0 | 0.00 | 0.10 | 0.00 | 62 | 1017.6 |
| 20260901183530 | 69 | 275 | 12.0 | 14.0 | 0.00 | 0.10 | 0.00 | 62 | 1017.6 |
| 20260901182530 | 70 | 279 | 12.0 | 15.0 | 0.00 | 0.10 | 0.00 | 61 | 1017.6 |